Weather in Aramil

Russia / Sverdlovsk Oblast     56°41′40″N   60°50′03″E
temp.,
°C
wind,
m/s
gust,
m/s
humid.,
%
clouds,
%
prec.,
mm/h
press.,
hPa
HPBL,
m
21 june, mon
mon2123:00+12n5114310 0.0 1017938
02:00+10nnw412504 0.0 1019651
05:00+7nnw413615 0.0 1021567
08:00+12n59495 0.0 1022780
11:00+17n464093 0.0 10221422
14:00+20nnw342762 0.0 10221894
17:00+21nnw242369 0.0 10212040
20:00+18n004430 0.0 102011
22 june, tue
tue2223:00+15ssw114980 0.0 102012
02:00+14n016350 0.0 101913
05:00+13wsw2473100 0.0 1019116
08:00+14w277997 0.0 1019269
11:00+18w357561 0.1 1017415
14:00+23nnw47698 1.4 10161263
17:00+27n484294 1.6 10142004
20:00+23ene246123 0.0 1015198
23 june, wed
wed2323:00+16ene22894 0.0 101628
02:00+13n3988100 0.0 1018234
05:00+12ne2790100 0.1 1020336
08:00+14ne2573100 0.0 1020485
11:00+17ene2453100 0.0 10211152
14:00+21ne3331100 0.0 10202191
17:00+22ne33281 0.0 10192263
20:00+19ene24453 0.0 101996
24 june, thu
thu2423:00+12ese11640 0.0 102112
02:00+10wsw11755 0.0 102110
05:00+10w11755 0.0 102110
08:00+17w23487 0.0 1020328
11:00+22wnw3433100 0.0 10181717
14:00+25wnw463223 0.0 10162235
17:00+26wnw563460 0.0 10152446
20:00+24wnw37485 0.0 1015418
25 june, fri
fri2523:00+18w4117068 0.0 1014252
02:00+17w4137744 0.0 1013345
05:00+18w41478100 0.0 1011449
08:00+22wnw6127024 0.1 1010606
11:00+27nw585339 0.1 10091417
14:00+29nw4644100 0.0 10082312
17:00+25n2659100 0.1 1008371
20:00+25nw126585 0.2 100889